GW1905 Weather Reports


Display with metric or nautical units.
time (UTC)temp
F
wind
direction
speed
MPH
gust
MPH
rain 1hr
in
rain 24hr
in
rain mn
in
humidity
%
barometer
mb
20260905234636 90 294 1.0 1.0 0.00 0.00 0.00 60 1015.1
20260905234131 90 325 1.0 2.0 0.00 0.00 0.00 59 1015.1
20260905233626 90 71 0.0 1.0 0.00 0.00 0.00 59 1015.3
20260905233120 91 241 0.0 1.0 0.00 0.00 0.00 57 1015.1
20260905232616 92 164 0.0 0.0 0.00 0.00 0.00 57 1015.3
20260905232111 92 241 0.0 1.0 0.00 0.00 0.00 57 1015.2
20260905231606 92 240 0.0 1.0 0.00 0.00 0.00 56 1014.9
20260905231102 93 242 0.0 1.0 0.00 0.00 0.00 55 1015.1
20260905230603 93 31 0.0 1.0 0.00 0.00 0.00 55 1015.1
20260905230101 93 91 0.0 1.0 0.00 0.00 0.00 54 1014.8
20260905225554 93 239 0.0 1.0 0.00 0.00 0.00 54 1014.8
20260905225049 94 87 0.0 1.0 0.00 0.00 0.00 54 1014.6
20260905224544 94 107 1.0 2.0 0.00 0.00 0.00 54 1014.9
20260905224043 94 137 0.0 2.0 0.00 0.00 0.00 52 1015.0
20260905223541 95 58 1.0 3.0 0.00 0.00 0.00 52 1015.1
20260905223036 95 267 1.0 1.0 0.00 0.00 0.00 52 1014.8
20260905222531 95 109 1.0 2.0 0.00 0.00 0.00 52 1015.1
20260905222026 95 113 1.0 3.0 0.00 0.00 0.00 51 1014.8
20260905221522 95 148 0.0 2.0 0.00 0.00 0.00 51 1015.0
20260905221018 95 285 2.0 3.0 0.00 0.00 0.00 50 1014.6
20260905220514 96 91 2.0 5.0 0.00 0.00 0.00 49 1014.7
20260905220010 96 180 0.0 3.0 0.00 0.00 0.00 49 1014.7
20260905215504 96 158 2.0 3.0 0.00 0.00 0.00 49 1014.8
20260905215000 96 80 2.0 3.0 0.00 0.00 0.00 49 1014.9
20260905214456 96 202 0.0 1.0 0.00 0.00 0.00 50 1014.7
20260905213956 96 93 2.0 3.0 0.00 0.00 0.00 49 1014.7
20260905213452 97 36 1.0 3.0 0.00 0.00 0.00 49 1014.7
20260905212947 97 317 3.0 3.0 0.00 0.00 0.00 47 1014.7
20260905212442 97 171 1.0 1.0 0.00 0.00 0.00 47 1014.7
20260905211941 97 259 1.0 5.0 0.00 0.00 0.00 46 1014.9
20260905211437 96 300 2.0 5.0 0.00 0.00 0.00 47 1014.8
20260905210932 96 122 1.0 2.0 0.00 0.00 0.00 48 1015.0
20260905210427 96 34 1.0 2.0 0.00 0.00 0.00 48 1014.9
20260905205926 97 117 3.0 7.0 0.00 0.00 0.00 48 1015.1
20260905205421 97 100 4.0 6.0 0.00 0.00 0.00 46 1015.2
20260905204920 97 208 0.0 2.0 0.00 0.00 0.00 46 1015.1
20260905204417 98 122 1.0 2.0 0.00 0.00 0.00 46 1015.4
20260905203915 97 195 1.0 1.0 0.00 0.00 0.00 50 1015.5
20260905203411 96 307 2.0 3.0 0.00 0.00 0.00 51 1015.6
20260905202906 97 47 1.0 3.0 0.00 0.00 0.00 48 1015.4
20260905202401 99 133 2.0 5.0 0.00 0.00 0.00 47 1015.5
20260905201856 101 200 1.0 2.0 0.00 0.00 0.00 44 1015.6
20260905201351 101 108 0.0 2.0 0.00 0.00 0.00 43 1015.4
20260905200846 98 185 1.0 1.0 0.00 0.00 0.00 45 1015.8
20260905200342 96 270 0.0 1.0 0.00 0.00 0.00 49 1015.7
20260905195840 97 305 2.0 2.0 0.00 0.00 0.00 47 1015.8
20260905195335 96 74 2.0 3.0 0.00 0.00 0.00 48 1016.0
20260905194831 96 284 0.0 1.0 0.00 0.00 0.00 49 1015.9
20260905194331 96 312 1.0 1.0 0.00 0.00 0.00 49 1016.1
20260905193830 97 69 2.0 5.0 0.00 0.00 0.00 47 1016.2
20260905193325 98 311 5.0 7.0 0.00 0.00 0.00 47 1016.2
20260905192821 99 261 3.0 3.0 0.00 0.00 0.00 46 1016.1
20260905192317 99 309 4.0 5.0 0.00 0.00 0.00 46 1016.2
20260905191815 98 37 4.0 7.0 0.00 0.00 0.00 45 1016.5
20260905191314 98 352 3.0 5.0 0.00 0.00 0.00 47 1016.5
20260905190813 98 318 3.0 6.0 0.00 0.00 0.00 46 1016.7
20260905190313 98 162 1.0 3.0 0.00 0.00 0.00 48 1016.6
20260905185811 97 331 3.0 6.0 0.00 0.00 0.00 47 1016.5
20260905185307 96 315 2.0 6.0 0.00 0.00 0.00 50 1016.6
20260905184801 95 260 0.0 2.0 0.00 0.00 0.00 50 1016.5
20260905184259 95 317 2.0 3.0 0.00 0.00 0.00 51 1016.8
20260905183753 97 357 4.0 7.0 0.00 0.00 0.00 49 1016.7
20260905183248 98 93 3.0 5.0 0.00 0.00 0.00 49 1016.6
20260905182747 98 226 0.0 3.0 0.00 0.00 0.00 47 1016.8
20260905182242 97 193 3.0 6.0 0.00 0.00 0.00 47 1016.9
20260905181738 96 265 2.0 3.0 0.00 0.00 0.00 49 1017.2
20260905181237 96 278 3.0 8.0 0.00 0.00 0.00 52 1017.3
20260905180732 97 272 6.0 10.0 0.00 0.00 0.00 50 1017.1
20260905180227 97 222 1.0 5.0 0.00 0.00 0.00 50 1017.1
20260905175727 97 220 3.0 3.0 0.00 0.00 0.00 50 1017.4
20260905175221 95 97 1.0 3.0 0.00 0.00 0.00 51 1017.3
20260905174716 95 293 4.0 5.0 0.00 0.00 0.00 51 1017.4
20260905174212 95 286 3.0 7.0 0.00 0.00 0.00 53 1017.6
20260905173709 96 262 1.0 5.0 0.00 0.00 0.00 51 1017.7
20260905173204 95 81 1.0 2.0 0.00 0.00 0.00 51 1017.7
20260905172703 95 301 5.0 7.0 0.00 0.00 0.00 52 1017.8
20260905172157 97 295 3.0 5.0 0.00 0.00 0.00 50 1017.8
20260905171653 95 151 1.0 3.0 0.00 0.00 0.00 51 1017.7
20260905171149 95 292 2.0 6.0 0.00 0.00 0.00 55 1017.7
20260905170646 95 279 3.0 6.0 0.00 0.00 0.00 53 1017.7
20260905170141 96 302 4.0 6.0 0.00 0.00 0.00 55 1017.8
20260905165640 96 253 2.0 5.0 0.00 0.00 0.00 53 1017.9
20260905165136 96 90 2.0 3.0 0.00 0.00 0.00 54 1018.0
20260905164631 95 187 0.0 6.0 0.00 0.00 0.00 56 1017.9
20260905164130 95 87 3.0 7.0 0.00 0.00 0.00 54 1017.9
20260905163626 95 301 3.0 5.0 0.00 0.00 0.00 56 1018.0
20260905163123 94 70 2.0 10.0 0.00 0.00 0.00 57 1018.1
20260905162619 93 312 2.0 8.0 0.00 0.00 0.00 56 1018.1
20260905162118 94 333 4.0 6.0 0.00 0.00 0.00 57 1018.1
20260905161617 93 264 3.0 5.0 0.00 0.00 0.00 57 1018.1
20260905161115 93 123 3.0 7.0 0.00 0.00 0.00 56 1018.1
20260905160615 94 327 3.0 5.0 0.00 0.00 0.00 57 1018.3
20260905160109 93 340 1.0 5.0 0.00 0.00 0.00 60 1018.3
20260905155604 93 313 3.0 5.0 0.00 0.00 0.00 59 1018.3
20260905155103 92 341 6.0 7.0 0.00 0.00 0.00 60 1018.4
20260905154557 92 266 5.0 6.0 0.00 0.00 0.00 59 1018.5
20260905154053 93 298 5.0 5.0 0.00 0.00 0.00 59 1018.5
20260905153548 92 294 4.0 7.0 0.00 0.00 0.00 59 1018.4
20260905153048 93 248 3.0 3.0 0.00 0.00 0.00 60 1018.4
20260905152543 92 308 3.0 3.0 0.00 0.00 0.00 59 1018.5
20260905152038 92 319 3.0 6.0 0.00 0.00 0.00 60 1018.6
20260905151533 91 333 3.0 5.0 0.00 0.00 0.00 59 1018.5
20260905151029 91 307 3.0 5.0 0.00 0.00 0.00 60 1018.4
20260905150524 91 281 1.0 6.0 0.00 0.00 0.00 62 1018.5
20260905150021 91 337 1.0 6.0 0.00 0.00 0.00 61 1018.6
20260905145515 91 233 4.0 6.0 0.00 0.00 0.00 60 1018.6
20260905145015 90 276 1.0 1.0 0.00 0.00 0.00 63 1018.9
20260905144510 88 32 0.0 5.0 0.00 0.00 0.00 67 1018.5
20260905144009 88 307 2.0 6.0 0.00 0.00 0.00 66 1018.7
20260905143508 89 2 4.0 6.0 0.00 0.00 0.00 66 1018.6
20260905143003 89 290 1.0 3.0 0.00 0.00 0.00 67 1018.7
20260905142501 87 285 1.0 3.0 0.00 0.00 0.00 70 1018.7
20260905141957 87 348 3.0 5.0 0.00 0.00 0.00 70 1018.9
20260905141452 87 297 1.0 2.0 0.00 0.00 0.00 70 1018.7
20260905140948 87 219 0.0 1.0 0.00 0.00 0.00 69 1018.9
20260905140443 86 318 1.0 1.0 0.00 0.00 0.00 72 1018.7
20260905135942 86 290 1.0 2.0 0.00 0.00 0.00 74 1018.6
20260905135438 85 292 1.0 2.0 0.00 0.00 0.00 75 1018.7
20260905134933 85 325 1.0 2.0 0.00 0.00 0.00 75 1018.5
20260905134432 85 145 0.0 1.0 0.00 0.00 0.00 75 1018.9
20260905133931 82 288 0.0 1.0 0.00 0.00 0.00 79 1018.9
20260905133426 81 284 0.0 1.0 0.00 0.00 0.00 81 1018.7
20260905132926 81 290 1.0 1.0 0.00 0.00 0.00 81 1019.0
20260905132421 81 301 2.0 2.0 0.00 0.00 0.00 82 1018.9
20260905131916 80 269 1.0 1.0 0.00 0.00 0.00 83 1018.9
20260905131412 80 271 1.0 1.0 0.00 0.00 0.00 83 1019.0
20260905130906 79 283 1.0 1.0 0.00 0.00 0.00 83 1018.9
20260905130406 79 277 1.0 2.0 0.00 0.00 0.00 83 1018.7
20260905125901 79 205 0.0 1.0 0.00 0.00 0.00 85 1018.9
20260905125355 79 186 0.0 0.0 0.00 0.00 0.00 86 1019.0
20260905124851 78 186 0.0 1.0 0.00 0.00 0.00 87 1018.9
20260905124348 78 186 0.0 0.0 0.00 0.00 0.00 89 1019.0
20260905123848 77 186 0.0 0.0 0.00 0.00 0.00 89 1019.1
20260905123344 77 186 0.0 0.0 0.00 0.00 0.00 90 1018.9
20260905122844 77 186 0.0 1.0 0.00 0.00 0.00 90 1019.0
20260905122343 76 184 0.0 0.0 0.00 0.00 0.00 91 1019.1
20260905121839 76 183 0.0 0.0 0.00 0.00 0.00 93 1019.0
20260905121335 75 183 0.0 0.0 0.00 0.00 0.00 94 1018.9
20260905120834 75 183 0.0 0.0 0.00 0.00 0.00 95 1019.0
20260905120328 74 183 0.0 0.0 0.00 0.00 0.00 95 1018.7
20260905115824 74 183 0.0 0.0 0.00 0.00 0.00 96 1018.7
20260905115318 73 183 0.0 0.0 0.00 0.00 0.00 96 1018.4
20260905114817 73 183 0.0 0.0 0.00 0.00 0.00 96 1018.5
20260905114317 73 183 0.0 0.0 0.00 0.00 0.00 96 1018.4
20260905113816 73 182 0.0 0.0 0.00 0.00 0.00 96 1018.3
20260905113312 73 182 0.0 0.0 0.00 0.00 0.00 96 1018.4
20260905112807 73 182 0.0 0.0 0.00 0.00 0.00 96 1018.3
20260905112305 73 182 0.0 0.0 0.00 0.00 0.00 96 1018.3
20260905111756 73 182 0.0 0.0 0.00 0.00 0.00 96 1018.3
20260905111251 73 182 0.0 0.0 0.00 0.00 0.00 96 1018.2
20260905110750 73 182 0.0 0.0 0.00 0.00 0.00 96 1018.1
20260905110244 73 182 0.0 0.0 0.00 0.00 0.00 96 1018.1
20260905105740 72 182 0.0 0.0 0.00 0.00 0.00 95 1018.2
20260905105239 73 182 0.0 0.0 0.00 0.00 0.00 95 1018.0
20260905104734 73 182 0.0 0.0 0.00 0.00 0.00 95 1018.0
20260905104230 73 182 0.0 0.0 0.00 0.00 0.00 95 1017.9
20260905103725 73 182 0.0 0.0 0.00 0.00 0.00 95 1017.8
20260905103221 73 182 0.0 0.0 0.00 0.00 0.00 95 1017.9
20260905102716 73 182 0.0 0.0 0.00 0.00 0.00 95 1017.8
20260905102213 73 182 0.0 0.0 0.00 0.00 0.00 95 1017.6
20260905101711 73 182 0.0 0.0 0.00 0.00 0.00 95 1017.7
20260905101210 73 182 0.0 0.0 0.00 0.00 0.00 95 1017.7
20260905100706 73 182 0.0 0.0 0.00 0.00 0.00 95 1017.6
20260905100201 73 182 0.0 0.0 0.00 0.00 0.00 95 1017.7
20260905095701 73 182 0.0 0.0 0.00 0.00 0.00 95 1017.5
20260905095155 73 182 0.0 0.0 0.00 0.00 0.00 95 1017.5
20260905094650 73 182 0.0 0.0 0.00 0.00 0.00 95 1017.7
20260905094149 74 182 0.0 0.0 0.00 0.00 0.00 95 1017.5
20260905093644 73 182 0.0 0.0 0.00 0.00 0.00 95 1017.6
20260905093140 73 182 0.0 0.0 0.00 0.00 0.00 95 1017.4
20260905092640 74 182 0.0 0.0 0.00 0.00 0.00 94 1017.5
20260905092135 74 182 0.0 0.0 0.00 0.00 0.00 94 1017.5
20260905091630 74 182 0.0 0.0 0.00 0.00 0.00 94 1017.3
20260905091130 74 182 0.0 0.0 0.00 0.00 0.00 94 1017.5
20260905090625 74 182 0.0 0.0 0.00 0.00 0.00 94 1017.4
20260905090120 74 182 0.0 0.0 0.00 0.00 0.00 94 1017.3
20260905085619 74 182 0.0 0.0 0.00 0.00 0.00 94 1017.3
20260905085114 74 182 0.0 0.0 0.00 0.00 0.00 94 1017.5
20260905084613 74 182 0.0 0.0 0.00 0.00 0.00 94 1017.3
20260905084109 74 182 0.0 0.0 0.00 0.00 0.00 94 1017.3
20260905083603 74 182 0.0 0.0 0.00 0.00 0.00 94 1017.4
20260905083100 74 182 0.0 0.0 0.00 0.00 0.00 94 1017.5
20260905082555 74 182 0.0 0.0 0.00 0.00 0.00 94 1017.5
20260905082051 74 182 0.0 0.0 0.00 0.00 0.00 94 1017.5
20260905081550 74 182 0.0 0.0 0.00 0.00 0.00 94 1017.3
20260905081044 74 182 0.0 0.0 0.00 0.00 0.00 93 1017.5
20260905080538 74 182 0.0 0.0 0.00 0.00 0.00 93 1017.4
20260905080033 75 182 0.0 0.0 0.00 0.00 0.00 93 1017.4
20260905075526 75 182 0.0 0.0 0.00 0.00 0.00 93 1017.4
20260905075021 75 182 0.0 0.0 0.00 0.00 0.00 93 1017.5
20260905074516 75 182 0.0 0.0 0.00 0.00 0.00 92 1017.4
20260905074011 75 182 0.0 0.0 0.00 0.00 0.00 92 1017.5
20260905073506 75 182 0.0 0.0 0.00 0.00 0.00 92 1017.6
20260905073001 75 182 0.0 0.0 0.00 0.00 0.00 92 1017.5
20260905072455 75 182 0.0 0.0 0.00 0.00 0.00 92 1017.5
20260905071951 75 182 0.0 0.0 0.00 0.00 0.00 92 1017.5
20260905071448 75 182 0.0 0.0 0.00 0.00 0.00 92 1017.6
20260905070947 75 182 0.0 0.0 0.00 0.00 0.00 92 1017.6
20260905070444 76 182 0.0 0.0 0.00 0.00 0.00 91 1017.7
20260905065938 76 182 0.0 0.0 0.00 0.00 0.00 91 1017.9
20260905065436 76 182 0.0 0.0 0.00 0.00 0.00 91 1017.8
20260905064931 76 182 0.0 0.0 0.00 0.00 0.00 90 1017.7
20260905064427 76 182 0.0 0.0 0.00 0.00 0.00 90 1018.0
20260905063927 76 182 0.0 0.0 0.00 0.00 0.00 90 1017.9
20260905063422 76 182 0.0 0.0 0.00 0.00 0.00 90 1017.9
20260905062918 76 182 0.0 0.0 0.00 0.00 0.00 89 1018.0
20260905062412 76 182 0.0 0.0 0.00 0.00 0.00 88 1018.3
20260905061907 77 182 0.0 0.0 0.00 0.00 0.00 88 1018.1
20260905061401 77 182 0.0 0.0 0.00 0.00 0.00 88 1018.0
20260905060901 77 182 0.0 0.0 0.00 0.00 0.00 88 1018.2
20260905060357 77 182 0.0 0.0 0.00 0.00 0.00 88 1018.3
20260905055856 77 182 0.0 0.0 0.00 0.00 0.00 89 1018.2
20260905055352 77 182 0.0 0.0 0.00 0.00 0.00 89 1018.2
20260905054851 77 182 0.0 0.0 0.00 0.00 0.00 88 1018.4
20260905054347 77 182 0.0 0.0 0.00 0.00 0.00 88 1018.4
20260905053847 77 182 0.0 0.0 0.00 0.00 0.00 88 1018.2
20260905053341 77 182 0.0 0.0 0.00 0.00 0.00 87 1018.4
20260905052837 78 182 0.0 0.0 0.00 0.00 0.00 87 1018.3
20260905052331 78 182 0.0 0.0 0.00 0.00 0.00 86 1018.3
20260905051831 78 182 0.0 0.0 0.00 0.00 0.00 86 1018.1
20260905051327 78 182 0.0 0.0 0.00 0.00 0.00 87 1018.1
20260905050824 78 183 0.0 0.0 0.00 0.00 0.00 87 1018.2
20260905050320 78 183 0.0 0.0 0.00 0.00 0.00 86 1018.1
20260905045814 78 183 0.0 0.0 0.00 0.00 0.00 86 1018.1
20260905045309 78 182 0.0 0.0 0.00 0.00 0.00 85 1018.1
20260905044805 78 182 0.0 0.0 0.00 0.00 0.00 85 1018.3
20260905044300 78 181 0.0 0.0 0.00 0.00 0.00 85 1018.1
20260905043759 79 181 0.0 0.0 0.00 0.00 0.00 84 1018.2
20260905043254 79 182 0.0 0.0 0.00 0.00 0.00 83 1018.2
20260905042753 80 182 0.0 0.0 0.00 0.00 0.00 82 1018.1
20260905042252 80 182 0.0 0.0 0.00 0.00 0.00 80 1018.1
20260905041748 80 182 0.0 0.0 0.00 0.00 0.00 80 1018.1
20260905041244 80 182 0.0 0.0 0.00 0.00 0.00 80 1018.0
20260905040739 81 182 0.0 0.0 0.00 0.00 0.00 79 1018.0
20260905040237 81 182 0.0 0.0 0.00 0.00 0.00 79 1018.2
20260905035732 81 182 0.0 0.0 0.00 0.00 0.00 78 1018.2
20260905035229 81 183 0.0 0.0 0.00 0.00 0.00 78 1018.1
20260905034725 82 183 0.0 0.0 0.00 0.00 0.00 77 1018.3
20260905034225 82 182 0.0 0.0 0.00 0.00 0.00 77 1018.2
20260905033724 82 180 0.0 0.0 0.00 0.00 0.00 77 1018.3
20260905033219 82 180 0.0 0.0 0.00 0.00 0.00 76 1018.4
20260905032719 82 180 0.0 0.0 0.00 0.00 0.00 76 1018.3
20260905032214 83 180 0.0 1.0 0.00 0.00 0.00 75 1018.4
20260905031709 83 180 0.0 1.0 0.00 0.00 0.00 75 1018.3
20260905031205 83 182 0.0 1.0 0.00 0.00 0.00 74 1018.3
20260905030700 83 181 0.0 1.0 0.00 0.00 0.00 74 1018.4
20260905030155 84 187 1.0 1.0 0.00 0.00 0.00 74 1018.4
20260905025650 84 178 1.0 2.0 0.00 0.00 0.00 74 1018.3
20260905025146 84 162 0.0 1.0 0.00 0.00 0.00 74 1018.3
20260905024641 84 184 1.0 2.0 0.00 0.00 0.00 74 1018.5
20260905024136 84 155 1.0 2.0 0.00 0.00 0.00 75 1018.4
20260905023632 83 186 0.0 2.0 0.00 0.00 0.00 76 1018.4
20260905023131 82 199 0.0 1.0 0.00 0.00 0.00 78 1018.3
20260905022630 82 196 0.0 1.0 0.00 0.00 0.00 80 1018.3
20260905022125 82 194 0.0 0.0 0.00 0.00 0.00 80 1018.3
20260905021620 82 179 1.0 2.0 0.00 0.00 0.00 80 1018.5
20260905021116 82 155 0.0 0.0 0.00 0.00 0.00 79 1018.4
20260905020615 82 155 0.0 0.0 0.00 0.00 0.00 79 1018.3
20260905020110 82 155 0.0 0.0 0.00 0.00 0.00 79 1018.3
20260905015609 83 155 0.0 0.0 0.00 0.00 0.00 78 1018.3
20260905015103 83 155 0.0 1.0 0.00 0.00 0.00 77 1018.2
20260905014557 83 155 0.0 0.0 0.00 0.00 0.00 77 1018.3
20260905014053 83 155 0.0 0.0 0.00 0.00 0.00 76 1018.1
20260905013549 83 155 0.0 0.0 0.00 0.00 0.00 76 1018.1
20260905013045 83 155 0.0 0.0 0.00 0.00 0.00 75 1018.2
20260905012544 84 155 0.0 0.0 0.00 0.00 0.00 75 1018.1
20260905012042 84 155 0.0 0.0 0.00 0.00 0.00 73 1018.1
20260905011537 85 155 0.0 0.0 0.00 0.00 0.00 73 1018.2
20260905011033 85 155 0.0 0.0 0.00 0.00 0.00 72 1018.2
20260905010527 85 155 0.0 0.0 0.00 0.00 0.00 71 1018.2
20260905010024 86 155 0.0 0.0 0.00 0.00 0.00 71 1018.2
20260905005519 86 155 0.0 0.0 0.00 0.00 0.00 70 1018.3
20260905005015 87 155 0.0 0.0 0.00 0.00 0.00 67 1018.2
20260905004514 87 155 0.0 1.0 0.00 0.00 0.00 66 1018.2
20260905004009 87 155 0.0 0.0 0.00 0.00 0.00 66 1018.0
20260905003505 87 155 0.0 0.0 0.00 0.00 0.00 66 1018.0
20260905003001 88 156 0.0 0.0 0.00 0.00 0.00 65 1018.1
20260905002455 88 156 0.0 0.0 0.00 0.00 0.00 65 1018.1
20260905001949 88 156 1.0 1.0 0.00 0.00 0.00 64 1017.9
20260905001444 89 155 0.0 0.0 0.00 0.00 0.00 64 1017.8
20260905000938 89 155 0.0 1.0 0.00 0.00 0.00 63 1017.8
20260905000431 90 151 1.0 1.0 0.00 0.00 0.00 62 1018.1
20260904235924 90 142 0.0 1.0 0.00 0.00 0.00 60 1017.9
20260904235420 91 141 0.0 1.0 0.00 0.00 0.00 59 1018.1
20260904234919 91 140 0.0 1.0 0.00 0.00 0.00 58 1017.9